Location: Baumgarten
(49.0970°N, 12.7493°E)
Time: 18:14:08
(UTC+00:00)

Gbstr 26 Del rocket - Pass Details

Date: 05 July 2020
Orbit: 492 x 1264 km, 51.8° (Epoch: 13 August)

Event Time Altitude Azimuth Distance (km) Brightness Sun altitude
Exits shadow 22:49:26 27° 119° (ESE) 1,033 3.9 -18.0°
Drops below altitude 10° 22:52:15 10° 80° (E) 1,855 5.6 -18.1°
Sets 22:54:51 0° 69° (ENE) 2,855 6.7 -18.1°
